SCP
0 0 0 -0 -0 -0 -0 -0 -0 -0 -0 -0 -0 -0 -0 -0 -0 0 -0 -0 -0 0 -0 -0 0 0 0 0 0 0 0 -0 0 0 0 0 0 0 0 0 -0 0 0 -0 -0
0 0 0 0 -0 -0 -0 -0 -0 -0 -0 -0 -0 -0 -0 -0 -0 0 0 -0 -0 0 -0 -0 0 0 -0 0 0 0 -0 0 0 0 -0 0 0 0 0 0 0 0 -0 -0 -0
0 0 0 0 0 0 -0 -0 -0 -0 -0 -0 -0 -0 -0 -0 -0 0 -0 -0 0 0 -0 -0 -0 -0 -0 0 0 0 0 0 -0 -0 -0 0 0 0 0 0 0 0 -0 -0 -0
0 0 0 0 0 0 0 -0 -0 -0 -0 -0 -0 -0 -0 -0 0 -0 0 0 -0 0 -0 -0 -0 -0 -0 0 0 0 -0 -0 -0 0 0 0 0 0 0 0 0 0 -0 -0 -0
0 0 0 0 0 0 0 0 -0 -0 -0 -0 -0 -0 0 0 -0 -0 0 0 0 0 -0 -0 -0 -0 -0 0 -0 0 0 -0 -0 -0 -0 0 0 0 0 0 0 -0 -0 -0 -0
0 0 0 0 0 0 0 0 0 -0 0 0 0 0 0 -0 0 0 0 0 0 0 0 -0 -0 0 0 -0 0 0 0 0 0 -0 -0 -0 -0 0 0 0 0 -0 -0 0 0
0 0 0 0 0 0 0 0 0 0 0 0 0 0 0 0 0 0 0 0 0 0 0 0 -0 -0 -0 -0 0 0 -0 -0 -0 0 -0 -0 -0 0 -0 0 0 0 -0 0 0
0 0 0 0 0 0 0 0 0 0 0 0 -0 0 0 0 0 0 0 0 0 0 -0 -0 0 -0 -0 -0 0 -0 -0 -0 0 0 0 -0 -0 -0 -0 -0 -0 0 0 -0 -0
0 0 0 0 -0 -0 -0 -0 0 0 0 0 0 0 0 0 0 0 0 0 0 0 0 0 -0 0 -0 -0 -0 -0 0 -0 0 0 -0 -0 0 -0 -0 -0 -0 0 0 -0 -0
0 0 0 0 0 -0 -0 0 0 0 0 0 0 0 0 0 0 0 0 -0 0 0 -0 -0 0 0 0 -0 -0 0 -0 -0 0 0 0 -0 -0 0 -0 -0 -0 0 0 0 -0
-0 -0 -0 0 -0 0 0 0 0 0 -0 0 0 0 0 0 0 0 0 0 -0 0 -0 -0 0 0 -0 -0 -0 0 0 0 0 0 0 -0 0 0 -0 -0 -0 -0 -0 -0 -0
-0 -0 -0 -0 -0 -0 0 0 0 0 0 0 0 0 0 0 0 0 0 0 0 0 0 0 -0 0 0 0 -0 0 -0 0 0 0 0 -0 -0 -0 0 -0 -0 -0 -0 -0 -0
-0 -0 -0 -0 -0 0 0 0 0 0 0 0 0 0 0 0 0 0 0 -0 0 -0 0 0 0 -0 0 -0 -0 0 0 0 0 0 0 -0 -0 -0 0 -0 -0 0 -0 -0 -0
-0 -0 -0 -0 -0 0 0 0 0 0 0 0 0 0 0 0 0 0 -0 -0 0 -0 -0 0 -0 0 -0 -0 -0 -0 0 0 0 0 0 0 0 0 0 -0 -0 0 -0 -0 -0
-0 -0 -0 -0 -0 0 0 0 0 -0 -0 0 0 0 0 -0 0 0 -0 0 0 0 0 -0 0 -0 0 -0 -0 0 0 0 0 0 0 -0 0 -0 0 -0 -0 -0 -0 -0 -0
-0 -0 -0 -0 -0 -0 0 0 0 0 0 -0 0 0 0 0 0 0 0 0 0 0 0 -0 0 0 0 -0 -0 -0 0 0 0 0 0 -0 0 0 0 -0 -0 -0 0 -0 -0
-0 -0 -0 -0 0 -0 -0 0 0 -0 0 0 -0 -0 -0 0 0 0 0 0 0 0 0 0 0 0 0 0 0 0 -0 -0 0 0 0 -0 0 0 0 0 -0 0 0 0 -0
-0 -0 -0 -0 -0 -0 -0 -0 0 0 0 0 0 -0 -0 0 0 0 0 0 -0 -0 0 0 -0 0 0 -0 -0 0 -0 -0 0 -0 -0 -0 0 0 0 0 0 0 0 0 0
-0 0 -0 0 -0 -0 -0 0 0 0 0 -0 0 0 -0 0 0 0 0 -0 0 0 0 0 0 0 0 0 -0 -0 0 -0 -0 -0 0 0 0 -0 0 0 0 0 0 0 0
0 -0 0 0 -0 -0 0 -0 0 0 0 0 -0 -0 0 -0 -0 0 0 0 0 0 -0 0 0 0 0 0 -0 0 0 0 -0 0 0 0 0 0 0 0 0 0 0 0 0
-0 0 0 0 -0 -0 -0 0 0 0 0 0 0 -0 0 0 0 0 0 0 0 0 -0 0 0 0 0 0 -0 0 -0 0 -0 0 0 0 0 -0 0 0 0 0 0 0 0
-0 0 0 -0 0 -0 -0 0 0 0 0 0 0 0 0 0 0 0 0 0 0 0 -0 -0 0 -0 -0 0 0 0 0 0 0 0 0 0 0 -0 -0 0 0 0 0 0 -0
0 0 0 -0 0 0 0 0 0 0 0 0 0 0 0 0 0 0 0 0 0 -0 0 0 0 0 -0 -0 0 0 -0 0 -0 -0 0 0 0 0 0 0 0 0 0 0 0
0 0 0 0 0 -0 0 0 0 0 0 0 0 0 0 0 0 0 0 0 0 0 0 0 0 -0 -0 -0 0 0 0 0 0 0 0 0 0 0 0 0 0 0 0 0 0
0 0 0 0 0 -0 0 0 0 0 0 0 0 0 0 -0 0 0 -0 0 0 0 0 -0 0 -0 0 0 0 0 -0 0 0 0 0 0 0 0 0 0 0 0 0 0 0
0 0 0 0 0 0 0 0 0 0 0 0 0 0 0 0 0 0 0 -0 -0 0 0 0 0 0 0 0 -0 0 0 0 -0 0 0 0 0 0 0 0 0 0 0 -0 0
0 0 0 0 0 0 0 0 0 0 0 0 0 0 0 0 0 0 0 0 0 0 0 0 0 0 0 0 0 0 0 -0 0 0 0 0 0 0 0 0 -0 0 -0 -0 0
Wind_Speed_500mb
22 23 24 24 25 26 27 26 26 25 23 24 24 25 23 18 18 17 17 16 18 16 10 5 11 11 10 14 10 18 13 22 24 26 24 10 13 15 9 20 12 9 15 46 49
24 25 25 26 27 27 28 29 28 27 25 23 22 23 23 20 17 26 30 28 23 16 12 14 16 10 27 4 2 20 20 20 18 18 21 15 12 17 11 13 11 14 35 46 49
27 28 28 28 28 29 29 29 28 28 26 23 21 21 19 15 15 28 40 31 26 23 18 17 19 20 37 7 11 15 18 17 18 14 13 16 15 8 12 14 19 25 37 46 48
29 30 30 29 29 30 30 29 29 27 26 24 21 19 15 7 14 9 29 31 30 25 25 23 26 31 29 2 10 13 16 14 9 6 8 8 11 13 17 12 15 27 36 43 45
28 30 30 30 30 31 31 30 29 27 26 23 19 16 11 17 25 14 22 27 27 28 30 26 27 26 23 8 9 3 13 12 10 9 10 10 8 15 15 19 23 32 39 40 41
28 28 29 30 31 32 31 30 29 27 25 21 18 14 10 29 8 10 11 12 23 29 30 30 30 18 30 9 13 15 13 6 6 14 11 10 16 16 17 22 28 37 36 37 39
28 28 28 29 30 32 32 30 27 25 22 17 13 10 18 25 12 18 16 16 24 31 31 31 32 16 35 23 4 14 25 17 16 10 10 17 7 15 29 27 31 34 34 34 36
28 28 29 29 30 30 30 27 24 21 14 10 9 7 21 12 17 24 22 25 23 28 29 26 23 31 29 22 18 19 21 21 4 10 11 23 34 28 33 32 33 35 34 35 38
28 28 28 29 30 29 25 21 20 13 8 5 4 8 19 10 15 19 29 29 27 27 25 14 23 35 39 23 32 24 15 18 15 6 6 16 8 28 30 32 32 36 39 39 41
28 28 27 27 28 26 17 15 13 11 9 9 13 14 21 20 13 15 26 29 32 31 30 28 28 32 32 28 29 2 22 20 6 13 13 22 19 27 35 33 35 37 40 41 43
27 26 26 25 24 18 9 11 8 7 21 20 3 9 4 6 13 19 28 29 33 37 35 43 34 37 42 41 36 20 22 18 14 4 16 23 15 28 38 34 35 40 42 43 44
26 25 22 21 18 5 7 8 8 9 19 22 25 24 11 8 12 23 31 35 34 33 39 36 38 38 40 42 29 35 26 30 20 16 16 25 20 27 36 30 33 39 45 45 44
25 22 19 16 7 6 3 3 7 15 16 19 15 25 23 22 21 34 37 43 29 34 39 38 31 39 43 38 34 25 35 33 19 7 17 34 34 35 23 33 33 36 42 49 49
25 21 17 7 6 7 4 6 14 9 12 21 22 17 21 24 17 17 35 35 18 32 36 25 39 20 28 27 31 36 35 32 31 14 22 6 24 32 31 27 31 37 40 48 51
26 21 14 6 8 1 5 7 12 5 12 18 19 13 30 36 34 24 29 21 26 28 21 33 30 31 29 34 36 41 31 33 15 29 30 35 21 26 31 24 36 31 36 42 55
25 21 12 8 11 14 11 12 7 13 4 15 17 22 29 28 23 27 29 21 15 17 20 35 9 24 32 31 32 34 29 25 25 28 28 36 27 27 7 45 13 23 19 33 47
26 22 16 9 8 9 9 8 13 15 10 16 26 31 35 24 22 29 31 31 19 21 27 30 32 23 27 28 27 26 28 24 26 27 27 39 31 22 22 10 23 14 10 16 44
26 19 11 13 14 9 6 17 17 15 9 9 9 30 25 26 24 31 27 28 32 26 16 18 30 35 23 33 28 35 36 27 31 27 32 42 25 15 22 10 3 6 13 8 35
19 6 3 7 15 14 18 19 4 1 10 13 20 22 21 24 9 18 28 30 26 23 26 10 18 14 18 25 31 34 29 39 43 40 31 8 23 38 8 12 8 17 4 21 29
5 7 5 11 16 13 18 27 6 8 12 16 22 26 20 28 20 22 22 18 16 19 27 5 16 16 17 17 30 37 18 23 23 29 35 31 25 18 12 10 11 9 5 19 28
3 12 3 11 15 21 19 7 5 12 10 10 8 17 19 22 29 27 23 15 11 17 21 26 17 11 10 22 27 23 30 23 38 26 26 26 17 40 17 8 7 10 7 13 10
9 6 9 17 21 27 22 4 6 13 12 7 14 25 12 15 13 17 14 8 6 11 17 23 19 20 25 14 20 33 30 37 17 28 26 19 9 48 17 5 11 8 5 12 8
12 6 10 17 13 14 12 15 16 13 15 11 14 12 7 13 11 13 11 21 5 12 8 8 18 18 17 23 23 19 30 30 38 34 30 27 10 4 14 16 12 19 7 12 9
11 10 13 24 30 27 9 20 20 17 14 9 12 6 16 21 14 13 12 16 10 5 13 13 28 30 22 24 19 21 24 31 33 26 24 21 25 22 12 12 12 33 15 3 18
11 5 12 11 19 20 4 7 20 13 24 17 17 21 16 19 24 21 24 25 17 13 13 15 25 26 12 23 11 22 34 27 33 30 35 30 10 18 12 17 17 12 12 13 22
14 11 6 25 3 12 12 16 20 15 7 21 26 25 15 26 12 10 22 20 18 28 25 22 23 20 21 26 26 21 26 30 39 30 28 37 29 21 16 12 14 21 8 13 25
11 13 14 6 19 17 19 17 15 0 11 19 5 5 25 14 12 19 24 33 26 9 30 21 18 22 28 28 28 25 26 31 30 31 29 28 21 12 17 25 34 11 10 17 29
Wind_Direction_500mb
337 335 334 332 330 328 326 325 323 323 321 320 320 320 309 289 253 258 242 222 235 230 255 273 278 297 288 266 292 273 279 54 28 42 93 110 81 58 68 121 62 75 137 150 155
328 326 325 325 325 324 321 320 320 319 318 316 314 317 312 303 255 249 231 229 224 219 228 245 284 279 254 263 325 305 44 23 28 35 81 96 69 92 120 103 122 107 118 146 156
321 320 318 319 321 320 317 315 315 315 315 313 310 312 316 315 279 240 226 222 219 218 232 263 273 269 274 166 12 8 28 13 61 37 57 92 110 109 171 157 131 137 145 155 161
318 317 315 314 313 312 312 311 309 309 310 308 306 308 312 269 229 169 217 212 214 221 239 253 249 249 261 62 104 293 41 16 57 115 102 93 105 110 47 47 109 144 157 161 166
317 317 316 313 309 308 307 306 302 304 305 305 303 302 306 238 250 254 206 209 204 209 225 238 254 257 267 4 313 316 355 62 105 149 130 136 119 98 93 105 120 142 157 166 174
316 317 316 313 309 305 304 302 298 300 301 299 293 289 272 251 214 203 211 211 199 203 219 233 244 282 304 279 287 356 300 72 193 134 156 179 150 185 129 130 135 150 163 171 177
315 316 317 315 310 305 304 301 299 301 300 293 283 278 262 238 236 215 218 201 203 207 221 226 243 243 238 266 91 276 261 173 171 177 167 216 172 170 147 151 152 162 170 174 178
316 315 315 315 311 308 307 304 303 304 296 290 275 266 263 227 231 231 215 217 213 209 227 235 227 253 267 280 262 258 251 238 68 186 173 255 211 115 158 168 166 170 176 177 179
317 316 315 316 316 314 310 307 309 300 281 282 316 236 253 249 222 212 209 210 206 208 211 221 229 238 235 247 249 204 222 279 144 154 318 244 141 130 172 180 179 180 183 183 184
316 316 316 316 319 320 312 308 300 280 259 257 246 246 233 214 186 201 201 208 204 203 210 215 223 235 240 224 242 16 263 163 261 98 228 272 284 147 176 195 188 192 188 190 191
318 318 320 318 323 324 328 315 281 211 219 253 105 256 145 215 216 207 196 197 202 208 215 207 226 230 229 230 269 304 290 312 130 103 284 274 316 174 171 195 198 196 192 196 198
320 322 323 321 325 337 58 309 27 340 294 238 240 242 240 231 212 192 184 197 206 213 218 227 223 237 240 250 238 251 258 252 226 159 264 285 292 293 159 188 209 205 193 202 199
321 324 326 324 338 23 276 203 337 331 254 170 211 216 214 206 231 182 191 205 200 221 223 231 221 212 249 238 243 257 241 257 337 330 285 262 259 250 175 178 199 209 210 196 202
320 324 332 341 83 313 227 242 329 312 262 140 184 173 188 200 221 164 193 201 225 240 236 232 246 245 259 244 246 241 239 259 276 265 272 223 292 197 166 181 186 196 207 204 197
320 319 327 288 230 230 223 295 321 274 241 137 131 147 173 203 131 190 191 210 237 220 243 230 238 239 237 242 238 256 258 264 268 252 261 255 252 278 183 212 185 188 191 210 193
320 312 315 322 256 230 289 291 295 230 167 137 139 179 173 214 203 145 180 221 282 231 223 261 217 258 245 244 245 252 249 257 265 257 256 263 257 268 199 1 119 152 148 192 203
318 306 291 226 139 253 269 254 229 259 165 159 162 163 188 183 165 177 188 200 201 205 210 212 230 227 239 244 230 239 239 241 232 232 245 250 242 253 310 191 33 60 63 191 195
319 306 282 233 221 238 231 233 260 39 121 83 189 174 205 170 174 186 191 207 225 253 267 208 201 204 195 237 232 210 237 236 238 251 252 231 230 214 264 37 306 213 188 164 190
328 338 268 276 200 201 229 227 294 61 65 205 169 191 197 189 247 191 204 219 198 225 262 207 244 112 217 225 241 233 220 255 264 267 272 291 9 267 224 250 290 233 158 161 189
326 228 217 233 190 185 240 265 56 4 294 248 203 215 180 186 205 199 182 209 200 213 245 319 270 169 199 235 232 255 262 229 243 267 273 282 182 239 166 195 320 336 7 152 176
159 231 200 157 163 219 240 215 135 185 260 260 266 202 247 158 214 210 163 126 224 182 234 259 250 145 200 213 232 205 243 249 267 225 253 266 264 3 113 106 285 354 313 55 193
277 237 166 159 212 223 250 199 33 218 194 244 295 304 228 186 218 197 176 144 91 263 211 232 292 242 226 186 215 232 217 241 235 242 276 304 272 175 266 191 211 299 22 54 278
277 52 188 189 245 201 223 244 240 206 217 205 231 259 272 241 241 244 130 89 148 231 323 224 244 245 222 185 187 243 256 245 240 253 245 257 302 70 5 345 320 303 94 159 186
278 198 163 218 274 283 190 228 203 217 288 247 285 261 235 243 239 230 175 163 188 325 13 298 267 285 296 4 349 201 222 251 262 264 267 248 283 290 38 330 327 62 49 251 165
239 343 1 189 225 244 299 344 222 190 227 210 217 255 232 244 210 238 231 149 205 137 244 259 264 300 288 310 295 298 296 224 244 268 277 284 354 298 40 327 27 31 3 237 171
306 324 284 290 306 262 155 225 239 206 253 211 245 205 247 253 291 318 219 235 241 166 236 236 270 284 288 282 259 245 271 269 278 228 260 270 283 327 315 294 2 43 326 201 185
324 290 280 218 247 224 235 239 224 250 233 308 246 269 232 22 10 313 303 302 301 310 289 277 280 303 292 303 299 272 242 244 259 250 240 253 246 314 352 350 322 118 291 194 185
Wind_Speed_850mb
22 23 24 24 25 26 27 26 26 25 23 24 24 25 23 18 18 17 17 16 18 16 10 5 11 11 10 14 10 18 13 22 24 26 24 10 13 15 9 20 12 9 15 46 49
24 25 25 26 27 27 28 29 28 27 25 23 22 23 23 20 17 26 30 28 23 16 12 14 16 10 27 4 2 20 20 20 18 18 21 15 12 17 11 13 11 14 35 46 49
27 28 28 28 28 29 29 29 28 28 26 23 21 21 19 15 15 28 40 31 26 23 18 17 19 20 37 7 11 15 18 17 18 14 13 16 15 8 12 14 19 25 37 46 48
29 30 30 29 29 30 30 29 29 27 26 24 21 19 15 7 14 9 29 31 30 25 25 23 26 31 29 2 10 13 16 14 9 6 8 8 11 13 17 12 15 27 36 43 45
28 30 30 30 30 31 31 30 29 27 26 23 19 16 11 17 25 14 22 27 27 28 30 26 27 26 23 8 9 3 13 12 10 9 10 10 8 15 15 19 23 32 39 40 41
28 28 29 30 31 32 31 30 29 27 25 21 18 14 10 29 8 10 11 12 23 29 30 30 30 18 30 9 13 15 13 6 6 14 11 10 16 16 17 22 28 37 36 37 39
28 28 28 29 30 32 32 30 27 25 22 17 13 10 18 25 12 18 16 16 24 31 31 31 32 16 35 23 4 14 25 17 16 10 10 17 7 15 29 27 31 34 34 34 36
28 28 29 29 30 30 30 27 24 21 14 10 9 7 21 12 17 24 22 25 23 28 29 26 23 31 29 22 18 19 21 21 4 10 11 23 34 28 33 32 33 35 34 35 38
28 28 28 29 30 29 25 21 20 13 8 5 4 8 19 10 15 19 29 29 27 27 25 14 23 35 39 23 32 24 15 18 15 6 6 16 8 28 30 32 32 36 39 39 41
28 28 27 27 28 26 17 15 13 11 9 9 13 14 21 20 13 15 26 29 32 31 30 28 28 32 32 28 29 2 22 20 6 13 13 22 19 27 35 33 35 37 40 41 43
27 26 26 25 24 18 9 11 8 7 21 20 3 9 4 6 13 19 28 29 33 37 35 43 34 37 42 41 36 20 22 18 14 4 16 23 15 28 38 34 35 40 42 43 44
26 25 22 21 18 5 7 8 8 9 19 22 25 24 11 8 12 23 31 35 34 33 39 36 38 38 40 42 29 35 26 30 20 16 16 25 20 27 36 30 33 39 45 45 44
25 22 19 16 7 6 3 3 7 15 16 19 15 25 23 22 21 34 37 43 29 34 39 38 31 39 43 38 34 25 35 33 19 7 17 34 34 35 23 33 33 36 42 49 49
25 21 17 7 6 7 4 6 14 9 12 21 22 17 21 24 17 17 35 35 18 32 36 25 39 20 28 27 31 36 35 32 31 14 22 6 24 32 31 27 31 37 40 48 51
26 21 14 6 8 1 5 7 12 5 12 18 19 13 30 36 34 24 29 21 26 28 21 33 30 31 29 34 36 41 31 33 15 29 30 35 21 26 31 24 36 31 36 42 55
25 21 12 8 11 14 11 12 7 13 4 15 17 22 29 28 23 27 29 21 15 17 20 35 9 24 32 31 32 34 29 25 25 28 28 36 27 27 7 45 13 23 19 33 47
26 22 16 9 8 9 9 8 13 15 10 16 26 31 35 24 22 29 31 31 19 21 27 30 32 23 27 28 27 26 28 24 26 27 27 39 31 22 22 10 23 14 10 16 44
26 19 11 13 14 9 6 17 17 15 9 9 9 30 25 26 24 31 27 28 32 26 16 18 30 35 23 33 28 35 36 27 31 27 32 42 25 15 22 10 3 6 13 8 35
19 6 3 7 15 14 18 19 4 1 10 13 20 22 21 24 9 18 28 30 26 23 26 10 18 14 18 25 31 34 29 39 43 40 31 8 23 38 8 12 8 17 4 21 29
5 7 5 11 16 13 18 27 6 8 12 16 22 26 20 28 20 22 22 18 16 19 27 5 16 16 17 17 30 37 18 23 23 29 35 31 25 18 12 10 11 9 5 19 28
3 12 3 11 15 21 19 7 5 12 10 10 8 17 19 22 29 27 23 15 11 17 21 26 17 11 10 22 27 23 30 23 38 26 26 26 17 40 17 8 7 10 7 13 10
9 6 9 17 21 27 22 4 6 13 12 7 14 25 12 15 13 17 14 8 6 11 17 23 19 20 25 14 20 33 30 37 17 28 26 19 9 48 17 5 11 8 5 12 8
12 6 10 17 13 14 12 15 16 13 15 11 14 12 7 13 11 13 11 21 5 12 8 8 18 18 17 23 23 19 30 30 38 34 30 27 10 4 14 16 12 19 7 12 9
11 10 13 24 30 27 9 20 20 17 14 9 12 6 16 21 14 13 12 16 10 5 13 13 28 30 22 24 19 21 24 31 33 26 24 21 25 22 12 12 12 33 15 3 18
11 5 12 11 19 20 4 7 20 13 24 17 17 21 16 19 24 21 24 25 17 13 13 15 25 26 12 23 11 22 34 27 33 30 35 30 10 18 12 17 17 12 12 13 22
14 11 6 25 3 12 12 16 20 15 7 21 26 25 15 26 12 10 22 20 18 28 25 22 23 20 21 26 26 21 26 30 39 30 28 37 29 21 16 12 14 21 8 13 25
11 13 14 6 19 17 19 17 15 0 11 19 5 5 25 14 12 19 24 33 26 9 30 21 18 22 28 28 28 25 26 31 30 31 29 28 21 12 17 25 34 11 10 17 29
Wind_Direction_850mb
337 335 334 332 330 328 326 325 323 323 321 320 320 320 309 289 253 258 242 222 235 230 255 273 278 297 288 266 292 273 279 54 28 42 93 110 81 58 68 121 62 75 137 150 155
328 326 325 325 325 324 321 320 320 319 318 316 314 317 312 303 255 249 231 229 224 219 228 245 284 279 254 263 325 305 44 23 28 35 81 96 69 92 120 103 122 107 118 146 156
321 320 318 319 321 320 317 315 315 315 315 313 310 312 316 315 279 240 226 222 219 218 232 263 273 269 274 166 12 8 28 13 61 37 57 92 110 109 171 157 131 137 145 155 161
318 317 315 314 313 312 312 311 309 309 310 308 306 308 312 269 229 169 217 212 214 221 239 253 249 249 261 62 104 293 41 16 57 115 102 93 105 110 47 47 109 144 157 161 166
317 317 316 313 309 308 307 306 302 304 305 305 303 302 306 238 250 254 206 209 204 209 225 238 254 257 267 4 313 316 355 62 105 149 130 136 119 98 93 105 120 142 157 166 174
316 317 316 313 309 305 304 302 298 300 301 299 293 289 272 251 214 203 211 211 199 203 219 233 244 282 304 279 287 356 300 72 193 134 156 179 150 185 129 130 135 150 163 171 177
315 316 317 315 310 305 304 301 299 301 300 293 283 278 262 238 236 215 218 201 203 207 221 226 243 243 238 266 91 276 261 173 171 177 167 216 172 170 147 151 152 162 170 174 178
316 315 315 315 311 308 307 304 303 304 296 290 275 266 263 227 231 231 215 217 213 209 227 235 227 253 267 280 262 258 251 238 68 186 173 255 211 115 158 168 166 170 176 177 179
317 316 315 316 316 314 310 307 309 300 281 282 316 236 253 249 222 212 209 210 206 208 211 221 229 238 235 247 249 204 222 279 144 154 318 244 141 130 172 180 179 180 183 183 184
316 316 316 316 319 320 312 308 300 280 259 257 246 246 233 214 186 201 201 208 204 203 210 215 223 235 240 224 242 16 263 163 261 98 228 272 284 147 176 195 188 192 188 190 191
318 318 320 318 323 324 328 315 281 211 219 253 105 256 145 215 216 207 196 197 202 208 215 207 226 230 229 230 269 304 290 312 130 103 284 274 316 174 171 195 198 196 192 196 198
320 322 323 321 325 337 58 309 27 340 294 238 240 242 240 231 212 192 184 197 206 213 218 227 223 237 240 250 238 251 258 252 226 159 264 285 292 293 159 188 209 205 193 202 199
321 324 326 324 338 23 276 203 337 331 254 170 211 216 214 206 231 182 191 205 200 221 223 231 221 212 249 238 243 257 241 257 337 330 285 262 259 250 175 178 199 209 210 196 202
320 324 332 341 83 313 227 242 329 312 262 140 184 173 188 200 221 164 193 201 225 240 236 232 246 245 259 244 246 241 239 259 276 265 272 223 292 197 166 181 186 196 207 204 197
320 319 327 288 230 230 223 295 321 274 241 137 131 147 173 203 131 190 191 210 237 220 243 230 238 239 237 242 238 256 258 264 268 252 261 255 252 278 183 212 185 188 191 210 193
320 312 315 322 256 230 289 291 295 230 167 137 139 179 173 214 203 145 180 221 282 231 223 261 217 258 245 244 245 252 249 257 265 257 256 263 257 268 199 1 119 152 148 192 203
318 306 291 226 139 253 269 254 229 259 165 159 162 163 188 183 165 177 188 200 201 205 210 212 230 227 239 244 230 239 239 241 232 232 245 250 242 253 310 191 33 60 63 191 195
319 306 282 233 221 238 231 233 260 39 121 83 189 174 205 170 174 186 191 207 225 253 267 208 201 204 195 237 232 210 237 236 238 251 252 231 230 214 264 37 306 213 188 164 190
328 338 268 276 200 201 229 227 294 61 65 205 169 191 197 189 247 191 204 219 198 225 262 207 244 112 217 225 241 233 220 255 264 267 272 291 9 267 224 250 290 233 158 161 189
326 228 217 233 190 185 240 265 56 4 294 248 203 215 180 186 205 199 182 209 200 213 245 319 270 169 199 235 232 255 262 229 243 267 273 282 182 239 166 195 320 336 7 152 176
159 231 200 157 163 219 240 215 135 185 260 260 266 202 247 158 214 210 163 126 224 182 234 259 250 145 200 213 232 205 243 249 267 225 253 266 264 3 113 106 285 354 313 55 193
277 237 166 159 212 223 250 199 33 218 194 244 295 304 228 186 218 197 176 144 91 263 211 232 292 242 226 186 215 232 217 241 235 242 276 304 272 175 266 191 211 299 22 54 278
277 52 188 189 245 201 223 244 240 206 217 205 231 259 272 241 241 244 130 89 148 231 323 224 244 245 222 185 187 243 256 245 240 253 245 257 302 70 5 345 320 303 94 159 186
278 198 163 218 274 283 190 228 203 217 288 247 285 261 235 243 239 230 175 163 188 325 13 298 267 285 296 4 349 201 222 251 262 264 267 248 283 290 38 330 327 62 49 251 165
239 343 1 189 225 244 299 344 222 190 227 210 217 255 232 244 210 238 231 149 205 137 244 259 264 300 288 310 295 298 296 224 244 268 277 284 354 298 40 327 27 31 3 237 171
306 324 284 290 306 262 155 225 239 206 253 211 245 205 247 253 291 318 219 235 241 166 236 236 270 284 288 282 259 245 271 269 278 228 260 270 283 327 315 294 2 43 326 201 185
324 290 280 218 247 224 235 239 224 250 233 308 246 269 232 22 10 313 303 302 301 310 289 277 280 303 292 303 299 272 242 244 259 250 240 253 246 314 352 350 322 118 291 194 185